| time (UTC) | temp F | wind direction | speed MPH | gust MPH | rain 1hr in | rain 24hr in | rain mn in | humidity % | barometer mb |
| 20260509014559 | 55 | 0 | 0.0 | 0.0 | 0.00 | 0.00 | 0.00 | 72 | 1014.8 |
| 20260509013121 | 55 | 0 | 0.0 | 0.0 | 0.00 | 0.00 | 0.00 | 68 | 1014.6 |
| 20260509011559 | 56 | 0 | 0.0 | 0.0 | 0.00 | 0.00 | 0.00 | 68 | 1014.5 |
| 20260509010057 | 58 | 0 | 0.0 | 0.0 | 0.00 | 0.00 | 0.00 | 65 | 1014.4 |
| 20260509004555 | 59 | 0 | 0.0 | 1.0 | 0.00 | 0.00 | 0.00 | 55 | 1014.2 |
| 20260509003056 | 61 | 0 | 0.0 | 0.0 | 0.00 | 0.00 | 0.00 | 53 | 1014.4 |
| 20260509001554 | 62 | 0 | 0.0 | 0.0 | 0.00 | 0.00 | 0.00 | 53 | 1014.2 |
| 20260509000059 | 64 | 0 | 0.0 | 2.0 | 0.00 | 0.00 | 0.00 | 50 | 1014.3 |
| 20260508234553 | 66 | 0 | 0.0 | 3.0 | 0.00 | 0.00 | 0.00 | 46 | 1014.1 |
| 20260508233057 | 66 | 49 | 0.0 | 4.0 | 0.00 | 0.00 | 0.00 | 48 | 1014.0 |
| 20260508231556 | 67 | 0 | 0.0 | 2.0 | 0.00 | 0.00 | 0.00 | 44 | 1013.8 |
| 20260508230100 | 68 | 48 | 0.0 | 3.0 | 0.00 | 0.00 | 0.00 | 45 | 1013.9 |
| 20260508224606 | 69 | 74 | 0.0 | 3.0 | 0.00 | 0.00 | 0.00 | 40 | 1013.7 |
| 20260508223055 | 69 | 100 | 0.0 | 3.0 | 0.00 | 0.00 | 0.00 | 38 | 1013.8 |
| 20260508221558 | 70 | 15 | 0.0 | 3.0 | 0.00 | 0.00 | 0.00 | 38 | 1014.0 |
| 20260508220055 | 70 | 0 | 2.0 | 8.0 | 0.00 | 0.00 | 0.00 | 38 | 1014.0 |
| 20260508214555 | 70 | 79 | 1.0 | 5.0 | 0.00 | 0.01 | 0.00 | 36 | 1014.0 |
| 20260508213112 | 71 | 0 | 0.0 | 8.0 | 0.00 | 0.01 | 0.00 | 36 | 1014.1 |
| 20260508211558 | 71 | 60 | 1.0 | 6.0 | 0.00 | 0.01 | 0.00 | 34 | 1014.0 |
| 20260508210055 | 71 | 0 | 1.0 | 6.0 | 0.00 | 0.01 | 0.00 | 37 | 1014.1 |
| 20260508204556 | 71 | 63 | 0.0 | 8.0 | 0.00 | 0.06 | 0.00 | 43 | 1014.3 |
| 20260508203114 | 70 | 107 | 0.0 | 6.0 | 0.00 | 0.06 | 0.00 | 36 | 1014.4 |
| 20260508201557 | 70 | 0 | 3.0 | 8.0 | 0.00 | 0.06 | 0.00 | 41 | 1014.4 |
| 20260508200055 | 70 | 40 | 1.0 | 7.0 | 0.00 | 0.06 | 0.00 | 36 | 1014.6 |
| 20260508194555 | 70 | 59 | 1.0 | 9.0 | 0.00 | 0.10 | 0.00 | 37 | 1014.7 |
| 20260508193126 | 71 | 304 | 1.0 | 4.0 | 0.00 | 0.10 | 0.00 | 36 | 1015.0 |
| 20260508191557 | 71 | 45 | 2.0 | 6.0 | 0.00 | 0.10 | 0.00 | 36 | 1015.3 |
| 20260508184622 | 70 | 34 | 3.0 | 6.0 | 0.00 | 0.10 | 0.00 | 39 | 1015.8 |
| 20260508183057 | 69 | 9 | 1.0 | 5.0 | 0.00 | 0.10 | 0.00 | 39 | 1016.0 |
| 20260508181552 | 68 | 54 | 4.0 | 9.0 | 0.00 | 0.10 | 0.00 | 36 | 1016.2 |
| 20260508180100 | 69 | 0 | 1.0 | 8.0 | 0.00 | 0.10 | 0.00 | 39 | 1016.3 |
| 20260508174615 | 69 | 52 | 1.0 | 7.0 | 0.00 | 0.10 | 0.00 | 37 | 1016.4 |
| 20260508173108 | 69 | 0 | 2.0 | 8.0 | 0.00 | 0.10 | 0.00 | 43 | 1016.5 |
| 20260508171623 | 68 | 43 | 0.0 | 6.0 | 0.00 | 0.10 | 0.00 | 37 | 1016.8 |
| 20260508170101 | 67 | 231 | 1.0 | 6.0 | 0.00 | 0.10 | 0.00 | 36 | 1017.1 |
| 20260508164602 | 67 | 277 | 2.0 | 4.0 | 0.00 | 0.10 | 0.00 | 45 | 1017.3 |
| 20260508163057 | 66 | 355 | 0.0 | 4.0 | 0.00 | 0.10 | 0.00 | 45 | 1017.7 |
| 20260508161602 | 65 | 0 | 0.0 | 4.0 | 0.00 | 0.10 | 0.00 | 44 | 1017.7 |
| 20260508160056 | 65 | 33 | 1.0 | 6.0 | 0.00 | 0.10 | 0.00 | 47 | 1017.8 |
| 20260508154553 | 65 | 0 | 0.0 | 4.0 | 0.00 | 0.10 | 0.00 | 49 | 1018.1 |
| 20260508153051 | 64 | 62 | 1.0 | 3.0 | 0.00 | 0.10 | 0.00 | 46 | 1018.3 |
| 20260508151556 | 63 | 256 | 2.0 | 4.0 | 0.00 | 0.10 | 0.00 | 48 | 1018.3 |
| 20260508150100 | 62 | 50 | 2.0 | 4.0 | 0.00 | 0.10 | 0.00 | 46 | 1018.5 |
| 20260508144555 | 62 | 264 | 0.0 | 6.0 | 0.00 | 0.10 | 0.00 | 48 | 1018.4 |
| 20260508143057 | 61 | 0 | 0.0 | 2.0 | 0.00 | 0.10 | 0.00 | 54 | 1018.3 |
| 20260508141552 | 60 | 85 | 1.0 | 4.0 | 0.00 | 0.10 | 0.00 | 52 | 1018.2 |
| 20260508140056 | 58 | 0 | 0.0 | 4.0 | 0.00 | 0.10 | 0.00 | 58 | 1018.3 |
| 20260508134613 | 56 | 254 | 0.0 | 4.0 | 0.00 | 0.10 | 0.00 | 68 | 1018.2 |
| 20260508133104 | 54 | 239 | 0.0 | 4.0 | 0.00 | 0.10 | 0.00 | 76 | 1018.1 |
| 20260508131557 | 51 | 259 | 0.0 | 5.0 | 0.00 | 0.10 | 0.00 | 89 | 1018.2 |
| 20260508130056 | 50 | 240 | 0.0 | 2.0 | 0.00 | 0.10 | 0.00 | 98 | 1018.1 |
| 20260508124557 | 49 | 0 | 0.0 | 0.0 | 0.00 | 0.10 | 0.00 | 98 | 1018.1 |
| 20260508123057 | 48 | 0 | 0.0 | 0.0 | 0.00 | 0.10 | 0.00 | 98 | 1017.8 |
| 20260508121600 | 47 | 0 | 0.0 | 0.0 | 0.00 | 0.10 | 0.00 | 98 | 1017.7 |
| 20260508120056 | 45 | 0 | 0.0 | 0.0 | 0.00 | 0.10 | 0.00 | 98 | 1017.2 |
| 20260508113105 | 43 | 0 | 0.0 | 0.0 | 0.00 | 0.10 | 0.00 | 97 | 1016.8 |
| 20260508111600 | 42 | 0 | 0.0 | 0.0 | 0.00 | 0.10 | 0.00 | 96 | 1016.7 |
| 20260508110058 | 42 | 0 | 0.0 | 0.0 | 0.00 | 0.10 | 0.00 | 96 | 1016.3 |
| 20260508104558 | 42 | 0 | 0.0 | 0.0 | 0.00 | 0.11 | 0.00 | 96 | 1016.1 |
| 20260508103052 | 42 | 0 | 0.0 | 0.0 | 0.00 | 0.11 | 0.00 | 95 | 1015.8 |
| 20260508101553 | 42 | 0 | 0.0 | 0.0 | 0.00 | 0.11 | 0.00 | 95 | 1015.8 |
| 20260508100058 | 43 | 0 | 0.0 | 0.0 | 0.00 | 0.11 | 0.00 | 96 | 1015.6 |
| 20260508094610 | 43 | 0 | 0.0 | 0.0 | 0.00 | 0.19 | 0.00 | 95 | 1015.4 |
| 20260508093058 | 43 | 0 | 0.0 | 0.0 | 0.00 | 0.19 | 0.00 | 95 | 1015.3 |
| 20260508091614 | 44 | 0 | 0.0 | 0.0 | 0.00 | 0.19 | 0.00 | 95 | 1015.0 |
| 20260508090106 | 45 | 0 | 0.0 | 0.0 | 0.00 | 0.19 | 0.00 | 95 | 1015.1 |
| 20260508084551 | 46 | 0 | 0.0 | 1.0 | 0.00 | 0.20 | 0.00 | 96 | 1014.9 |
| 20260508083053 | 46 | 0 | 0.0 | 2.0 | 0.00 | 0.20 | 0.00 | 96 | 1014.8 |
| 20260508081555 | 46 | 0 | 0.0 | 0.0 | 0.00 | 0.20 | 0.00 | 97 | 1014.5 |
| 20260508080052 | 46 | 0 | 0.0 | 2.0 | 0.00 | 0.20 | 0.00 | 97 | 1014.5 |
| 20260508074551 | 44 | 0 | 0.0 | 1.0 | 0.00 | 0.20 | 0.00 | 96 | 1014.4 |
| 20260508073055 | 44 | 0 | 0.0 | 0.0 | 0.00 | 0.20 | 0.00 | 95 | 1014.3 |
| 20260508071555 | 44 | 0 | 0.0 | 0.0 | 0.00 | 0.20 | 0.00 | 95 | 1014.2 |
| 20260508070100 | 44 | 0 | 0.0 | 0.0 | 0.00 | 0.20 | 0.00 | 96 | 1014.0 |
| 20260508064554 | 44 | 0 | 0.0 | 0.0 | 0.00 | 0.20 | 0.00 | 95 | 1014.0 |
| 20260508063133 | 44 | 0 | 0.0 | 0.0 | 0.00 | 0.20 | 0.00 | 95 | 1013.9 |
| 20260508061554 | 45 | 0 | 0.0 | 0.0 | 0.00 | 0.20 | 0.00 | 95 | 1013.8 |
| 20260508060056 | 45 | 0 | 0.0 | 0.0 | 0.00 | 0.20 | 0.00 | 95 | 1013.5 |
| 20260508054551 | 45 | 0 | 0.0 | 0.0 | 0.00 | 0.20 | 0.00 | 95 | 1013.4 |
| 20260508053059 | 45 | 0 | 0.0 | 0.0 | 0.00 | 0.20 | 0.00 | 95 | 1013.4 |
| 20260508051617 | 45 | 0 | 0.0 | 0.0 | 0.00 | 0.20 | 0.00 | 95 | 1013.5 |
| 20260508050057 | 46 | 0 | 0.0 | 0.0 | 0.00 | 0.20 | 0.00 | 95 | 1013.4 |
| 20260508044556 | 46 | 0 | 0.0 | 0.0 | 0.00 | 0.20 | 0.00 | 95 | 1013.3 |
| 20260508043052 | 46 | 0 | 0.0 | 0.0 | 0.00 | 0.20 | 0.00 | 95 | 1013.1 |
| 20260508041555 | 47 | 0 | 0.0 | 0.0 | 0.00 | 0.20 | 0.00 | 95 | 1013.3 |
| 20260508040052 | 47 | 0 | 0.0 | 0.0 | 0.00 | 0.20 | 0.00 | 95 | 1013.2 |
| 20260508034553 | 48 | 0 | 0.0 | 0.0 | 0.00 | 0.20 | 0.20 | 95 | 1013.1 |
| 20260508033055 | 48 | 0 | 0.0 | 0.0 | 0.00 | 0.20 | 0.20 | 95 | 1013.1 |
| 20260508031552 | 48 | 0 | 0.0 | 0.0 | 0.00 | 0.20 | 0.20 | 95 | 1013.1 |
| 20260508030100 | 48 | 0 | 0.0 | 0.0 | 0.00 | 0.20 | 0.20 | 95 | 1012.9 |
| 20260508024552 | 47 | 0 | 0.0 | 0.0 | 0.00 | 0.20 | 0.20 | 95 | 1012.8 |
| 20260508023053 | 47 | 0 | 0.0 | 0.0 | 0.00 | 0.20 | 0.20 | 94 | 1012.8 |
| 20260508021554 | 47 | 0 | 0.0 | 0.0 | 0.00 | 0.20 | 0.20 | 94 | 1012.7 |
| 20260508020105 | 47 | 0 | 0.0 | 0.0 | 0.00 | 0.20 | 0.20 | 93 | 1012.6 |